User: anonymous   Login
Location: Gleizolles
(44.4833°N, 6.7667°E)
Time: 11:20:58
(UTC+00:00)
Language:

TIGRISAT - Orbit

View from above orbital plane
View from above orbital plane
View from above satellite
View from above satellite

Ground track
Ground track

The orbit data is extracted from the following two-line orbital elements,

1 40043U 14033AK  22333.73308629  .00000888  00000-0  13446-3 0  9998
2 40043  97.6543 154.1377 0058404 342.1546  17.7612 14.75393429453992
Epoch (UTC): 29 November 2022 17:35:38
Eccentricity: 0.0058404
inclination: 97.6543°
perigee height: 603 km
apogee height: 685 km
right ascension of ascending node: 154.1377°
argument of perigee: 342.1546°
revolutions per day: 14.75393429
mean anomaly at epoch: 17.7612°
orbit number at epoch: 45399

The dashed part of the orbit path shows where the satellite is in the earth's shadow,  

DLR